1499713201.09,2645,17.44,74132.3,9.77,8.55,8.55,0,*41
1499713202.32,2646,17.44,74138.0,9.73,8.65,8.55,0,*45
1499713203.54,2647,17.44,74120.8,9.73,8.45,8.41,0,*43
1499713204.78,2648,17.44,74130.5,9.73,8.33,8.41,0,*4D
1499713205.96,2649,17.44,74124.8,9.71,8.27,8.19,0,*46
1499713207.18,2650,17.44,74120.5,9.71,8.41,8.41,0,*43
1499713208.39,2651,17.44,74114.5,9.71,8.71,8.71,0,*42
1499713209.57,2652,17.44,74088.5,9.71,9.03,9.03,0,*41
1499713210.77,2653,17.44,74092.8,9.73,9.03,9.03,0,*42
1499713211.95,2654,17.44,74094.0,9.71,9.03,9.03,0,*47
1499713213.12,2655,17.44,74088.5,9.71,9.03,9.03,0,*46
1499713214.33,2656,17.44,74088.0,9.73,9.03,9.03,0,*47
1499713215.5,2657,17.44,74086.3,9.71,9.03,9.03,0,*44
1499713216.69,2658,17.44,74088.8,9.71,9.03,8.97,0,*47
1499713217.9,2659,17.44,74110.5,9.73,8.83,8.83,0,*48
1499713219.12,2660,17.44,74112.8,9.73,8.83,8.75,0,*4B
1499713220.32,2661,17.44,74114.8,9.73,8.83,8.83,0,*43
1499713221.49,2662,17.44,74118.0,9.71,8.83,8.83,0,*42
1499713222.66,2663,17.44,74122.5,9.71,8.87,8.83,0,*47
1499713223.91,2664,17.44,74128.8,9.73,8.97,8.97,0,*46
1499713225.16,2665,17.44,74130.0,9.73,8.97,8.93,0,*43
1499713226.41,2666,17.44,74130.0,9.73,8.93,8.93,0,*44
1499713227.6,2667,17.44,74124.3,9.71,9.03,8.97,0,*4B
1499713228.83,2668,17.44,74132.3,9.73,9.03,8.97,0,*46
1499713230.03,2669,17.44,74132.5,9.73,9.03,9.03,0,*4B
1499713231.26,2670,17.44,74128.8,9.73,8.97,9.03,0,*4F
1499713232.46,2671,17.44,74124.5,9.73,9.03,9.03,0,*42
1499713233.71,2672,17.44,74126.5,9.73,8.97,8.93,0,*45
1499713234.94,2673,17.44,74124.5,9.73,8.97,8.87,0,*41
1499713236.14,2674,17.44,74116.3,9.73,8.87,8.87,0,*47
1499713237.37,2675,17.44,74114.8,9.73,8.93,8.87,0,*43
1499713238.59,2676,17.44,74104.0,9.73,8.93,8.87,0,*40
1499713239.83,2677,17.44,74108.8,9.73,8.87,8.93,0,*41
1499713241.07,2678,17.44,74114.3,9.73,8.93,8.97,0,*4F
1499713242.28,2679,17.44,74114.0,9.71,8.97,8.97,0,*48
1499713243.53,2680,17.44,74114.0,9.73,8.93,8.97,0,*48
1499713244.74,2681,17.44,74118.3,9.73,9.03,9.03,0,*4D
1499713245.94,2682,17.44,74120.5,9.73,9.03,9.03,0,*4E
1499713247.14,2683,17.44,74124.8,9.73,9.07,9.07,0,*4F
1499713248.35,2684,17.44,74126.8,9.73,9.07,9.03,0,*4C
1499713249.57,2685,17.44,74124.8,9.73,9.03,8.97,0,*45
1499713250.78,2686,17.44,74128.0,9.73,9.03,9.03,0,*4A
1499713252.0,2687,17.44,74126.0,9.73,9.11,9.07,0,*4C
1499713253.24,2688,17.44,74124.3,9.77,9.15,9.15,0,*40
1499713254.48,2689,17.44,74128.3,9.77,9.11,9.11,0,*41
1499713255.68,2690,17.44,74124.8,9.79,9.07,9.01,0,*41
1499713256.88,2691,17.44,74130.3,9.77,9.07,9.07,0,*48
1499713258.11,2692,17.44,74128.0,9.73,9.11,9.03,0,*4C
1499713259.34,2693,17.44,74130.0,9.77,9.15,9.15,0,*4A
1499713260.56,2694,17.44,74126.8,9.79,9.15,9.15,0,*43
1499713261.8,2695,17.44,74126.5,9.77,9.11,9.11,0,*4C
1499713263.04,2696,17.44,74126.3,9.77,9.15,9.11,0,*4B
1499713264.27,2697,17.44,74126.8,9.77,9.11,9.11,0,*4E
1499713265.51,2698,17.44,74126.8,9.77,9.15,9.15,0,*41
1499713266.74,2699,17.44,74126.8,9.79,9.19,9.19,0,*4E
1499713267.96,2700,17.44,74126.3,9.79,9.15,9.15,0,*4F
1499713269.19,2701,17.44,74118.8,9.77,9.11,9.11,0,*40
1499713270.41,2702,17.44,74118.3,9.79,9.15,9.15,0,*4D
1499713271.61,2703,17.44,74120.0,9.77,9.07,9.07,0,*42
1499713272.79,2704,17.44,74116.3,9.79,9.03,9.03,0,*4B
1499713273.99,2705,17.44,74118.0,9.79,9.11,9.03,0,*49
1499713275.18,2706,17.44,74122.8,9.79,9.11,9.03,0,*4A
1499713276.4,2707,17.44,74120.5,9.77,9.01,9.07,0,*40
1499713277.62,2708,17.44,74122.8,9.79,9.11,9.11,0,*47
1499713278.84,2709,17.44,74128.5,9.79,9.11,9.11,0,*46
1499713280.04,2710,17.44,74128.3,9.79,9.11,9.03,0,*4D
1499713281.26,2711,17.44,74126.8,9.79,9.11,9.11,0,*4F
1499713282.47,2712,17.44,74124.3,9.79,9.11,9.11,0,*4C
1499713283.69,2713,17.44,74120.3,9.79,9.11,9.11,0,*4D
1499713284.91,2714,17.44,74124.3,9.79,9.15,9.11,0,*4E
1499713286.13,2715,17.44,74120.8,9.77,9.11,9.07,0,*42
1499713287.34,2716,17.44,74120.8,9.79,9.15,9.11,0,*4C
1499713288.56,2717,17.44,74124.8,9.79,9.15,9.11,0,*4D
1499713289.78,2718,17.44,74124.0,9.79,9.19,9.15,0,*4A
1499713291.02,2719,17.44,74120.0,9.81,9.15,9.15,0,*40
1499713292.24,2720,17.44,74120.3,9.79,9.15,9.11,0,*49
1499713293.46,2721,17.44,74120.5,9.77,9.11,9.07,0,*45
1499713294.68,2722,17.44,74112.3,9.79,9.19,9.11,0,*47
1499713295.9,2723,17.44,74114.3,9.79,9.15,9.11,0,*4A
1499713297.11,2724,17.44,74114.8,9.79,9.15,9.11,0,*4D
1499713298.33,2725,17.44,74108.5,9.79,9.11,9.11,0,*48
1499713299.53,2726,17.44,74100.5,9.79,9.11,9.03,0,*48
1499713300.73,2727,17.44,74098.3,9.79,9.03,9.01,0,*48
1499713301.93,2728,17.44,74098.8,9.79,9.03,9.11,0,*46
1499713303.15,2729,17.44,74102.5,9.79,9.11,9.11,0,*44
1499713304.37,2730,17.44,74098.5,9.79,9.15,9.11,0,*48
1499713305.58,2731,17.44,74106.5,9.79,9.15,9.11,0,*49
1499713306.8,2732,17.44,74112.5,9.79,9.15,9.11,0,*4A
1499713308.04,2733,17.44,74104.5,9.81,9.15,9.11,0,*4C
1499713309.24,2734,17.44,74074.0,9.81,9.03,9.03,0,*4F
1499713310.47,2735,17.44,74086.0,9.81,9.01,8.83,0,*45
1499713311.72,2736,17.44,74084.8,9.81,9.01,9.01,0,*4D
1499713312.96,2737,17.44,74086.0,9.81,9.11,9.11,0,*4C
1499713314.2,2738,17.44,74102.8,9.81,9.11,9.15,0,*47
1499713315.44,2739,17.44,74096.0,9.81,9.19,9.15,0,*4E
1499713316.68,2740,17.44,74080.8,9.81,9.15,9.11,0,*48
1499713317.93,2741,17.44,74084.3,9.81,9.15,9.11,0,*49
1499713319.14,2742,17.44,74098.8,9.83,9.15,9.15,0,*4C
1499713320.38,2743,17.44,74096.3,9.81,9.15,9.15,0,*4F
1499713321.62,2744,17.44,74110.0,9.81,9.19,9.15,0,*44
1499713322.8,2745,17.44,74110.5,9.83,9.21,9.21,0,*4B
1499713324.04,2746,17.44,74118.8,9.81,9.15,9.15,0,*4A
1499713325.28,2747,17.44,74098.0,9.81,9.15,9.15,0,*4B
1499713326.52,2748,17.44,74106.8,9.81,9.15,9.15,0,*44
1499713327.76,2749,17.44,74120.8,9.81,9.15,9.15,0,*45
1499713329.0,2750,17.44,74122.0,9.81,9.19,9.15,0,*41
1499713330.25,2751,17.44,74124.8,9.81,9.15,9.19,0,*40
1499713331.5,2752,17.44,74140.8,9.81,9.19,9.19,0,*4F
1499713332.72,2753,17.44,74134.3,9.81,9.19,9.29,0,*4D
1499713333.89,2754,17.44,74128.0,9.83,9.21,9.21,0,*4B
1499713335.08,2755,17.44,74124.0,9.81,9.25,9.25,0,*48
1499713336.25,2756,17.44,74130.3,9.83,9.29,9.29,0,*49
1499713337.49,2757,17.44,74134.0,9.81,9.15,9.15,0,*4A
1499713338.72,2758,17.44,74136.8,9.83,9.19,9.19,0,*47
1499713339.94,2759,17.44,74132.0,9.83,9.15,9.19,0,*4A
1499713341.18,2760,17.44,74134.5,9.81,9.15,9.15,0,*4E
1499713342.38,2761,17.44,74138.5,9.81,9.03,9.03,0,*4F
1499713343.61,2762,17.44,74142.0,9.81,9.01,9.03,0,*4E
1499713344.83,2763,17.44,74144.0,9.81,9.03,9.11,0,*4E
1499713346.05,2764,17.44,74152.3,9.83,9.15,9.15,0,*48
1499713347.22,2765,17.44,74148.0,9.83,9.07,9.07,0,*49
1499713348.45,2766,17.44,74148.8,9.81,9.03,9.11,0,*4B
1499713349.67,2767,17.44,74150.5,9.81,9.03,9.11,0,*4A
1499713350.89,2768,17.44,74136.3,9.81,9.11,9.03,0,*45
1499713352.11,2769,17.44,74146.8,9.83,9.15,9.15,0,*45
1499713353.32,2770,17.44,74150.0,9.83,9.15,9.15,0,*4D
1499713354.54,2771,17.44,74156.3,9.83,9.11,9.15,0,*48
1499713355.76,2772,17.44,74152.8,9.83,9.19,9.15,0,*43
1499713356.99,2773,17.44,74158.0,9.83,9.19,9.19,0,*4E
1499713358.19,2774,17.44,74160.5,9.83,9.21,9.19,0,*42
1499713359.35,2775,17.44,74166.0,9.83,9.21,9.29,0,*40
1499713360.52,2776,17.44,74160.0,9.83,9.29,9.33,0,*40
1499713361.69,2777,17.44,74164.3,9.83,9.25,9.29,0,*46
1499713362.88,2778,17.44,74162.8,9.83,9.29,9.39,0,*44
1499713364.05,2779,17.44,74158.8,9.83,9.29,9.29,0,*44
1499713365.22,2780,17.44,74156.3,9.83,9.21,9.21,0,*42
1499713366.44,2781,17.44,74156.0,9.83,9.19,9.15,0,*4F
1499713367.66,2782,17.44,74160.0,9.83,9.19,9.15,0,*4C
1499713368.86,2783,17.44,74154.0,9.83,9.21,9.19,0,*4A
1499713370.03,2784,17.44,74154.5,9.83,9.21,9.21,0,*46
1499713371.28,2785,17.44,74144.8,9.85,9.19,9.19,0,*41
1499713372.45,2786,17.44,74150.3,9.83,9.21,9.21,0,*44
1499713373.62,2787,17.44,74148.5,9.83,9.29,9.21,0,*4D
1499713374.79,2788,17.44,74152.5,9.83,9.33,9.33,0,*4A
1499713375.96,2789,17.44,74148.8,9.83,9.33,9.33,0,*4B
1499713377.13,2790,17.44,74150.3,9.83,9.33,9.43,0,*44
1499713378.33,2791,17.44,74142.0,9.85,9.33,9.33,0,*44
1499713379.52,2792,17.44,74138.3,9.85,9.33,9.29,0,*4C
1499713380.74,2793,17.44,74144.3,9.85,9.21,9.19,0,*4D
1499713381.94,2794,17.44,74146.5,9.87,9.21,9.19,0,*48
1499713383.18,2795,17.44,74150.0,9.85,9.15,9.15,0,*40
1499713384.37,2796,17.44,74150.0,9.85,9.21,9.21,0,*43
1499713385.54,2797,17.44,74148.3,9.87,9.25,9.25,0,*40
1499713386.74,2798,17.44,74148.8,9.85,9.33,9.29,0,*46
1499713387.93,2799,17.44,74146.3,9.87,9.35,9.33,0,*48
1499713389.12,2800,17.44,74142.8,9.85,9.21,9.21,0,*43
1499713390.32,2801,17.44,74144.5,9.85,9.21,9.21,0,*42
1499713391.51,2802,17.44,74148.0,9.87,9.35,9.33,0,*45
1499713392.73,2803,17.44,74144.5,9.87,9.35,9.35,0,*42
1499713393.9,2804,17.44,74146.3,9.87,9.33,9.33,0,*45
1499713395.09,2805,17.44,74148.8,9.85,9.29,9.29,0,*46
1499713396.26,2806,17.44,74146.0,9.87,9.33,9.25,0,*40
1499713397.48,2807,17.44,74150.3,9.85,9.29,9.19,0,*47
1499713398.65,2808,17.44,74154.5,9.87,9.33,9.25,0,*4E
1499713399.83,2809,17.44,74150.0,9.87,9.33,9.25,0,*4F
1499713401.05,2810,17.44,74148.8,9.89,9.29,9.35,0,*43
1499713402.29,2811,17.44,74158.3,9.89,9.35,9.35,0,*4F
1499713403.49,2812,17.44,74158.8,9.87,9.35,9.33,0,*44
1499713404.66,2813,17.44,74158.5,9.87,9.33,9.33,0,*43
1499713405.83,2814,17.44,74156.5,9.87,9.33,9.25,0,*43
1499713407.0,2815,17.44,74158.5,9.87,9.33,9.25,0,*42
1499713408.2,2816,17.44,74166.3,9.87,9.35,9.33,0,*40
1499713409.44,2817,17.44,74170.5,9.89,9.35,9.35,0,*49
1499713410.66,2818,17.44,74168.3,9.87,9.35,9.35,0,*48
1499713411.91,2819,17.44,74170.0,9.89,9.39,9.39,0,*47
1499713413.16,2820,17.44,74162.8,9.89,9.35,9.35,0,*4D
1499713414.35,2821,17.44,74168.3,9.89,9.29,9.25,0,*40
1499713415.54,2822,17.44,74168.0,9.89,9.29,9.29,0,*4F
1499713416.71,2823,17.44,74168.0,9.91,9.25,9.29,0,*4B
1499713417.91,2824,17.44,74174.5,9.89,9.25,9.25,0,*49
1499713419.11,2825,17.44,74176.8,9.89,9.29,9.25,0,*44
1499713420.31,2826,17.44,74168.8,9.89,9.25,9.25,0,*4B
1499713421.47,2827,17.44,74160.3,9.91,9.29,9.29,0,*43
1499713422.67,2828,17.44,74162.0,9.89,9.29,9.25,0,*49
1499713423.87,2829,17.44,74156.8,9.89,9.25,9.25,0,*44
1499713425.06,2830,17.44,74158.3,9.89,9.29,9.25,0,*40
1499713426.28,2831,17.44,74152.8,9.89,9.29,9.35,0,*40
1499713427.53,2832,17.44,74156.0,9.89,9.35,9.35,0,*4E
1499713428.75,2833,17.44,74154.0,9.91,9.35,9.39,0,*4A
1499713430.0,2834,17.44,74156.3,9.89,9.39,9.35,0,*44
1499713431.22,2835,17.44,74162.8,9.91,9.39,9.35,0,*4C
1499713432.38,2836,17.44,74162.0,9.91,9.29,9.29,0,*43
1499713433.55,2837,17.44,74164.5,9.91,9.29,9.29,0,*42
1499713434.72,2838,17.44,74150.8,9.91,9.25,9.25,0,*4D
1499713435.92,2839,17.44,74156.0,9.89,9.25,9.25,0,*45
1499713437.1,2840,17.44,74160.5,9.91,9.25,9.21,0,*46
1499713438.26,2841,17.44,74158.8,9.91,9.29,9.25,0,*4F
1499713439.46,2842,17.44,74148.5,9.89,9.25,9.25,0,*49
1499713440.66,2843,17.44,74148.0,9.89,9.29,9.25,0,*44
1499713441.83,2844,17.44,74144.8,9.91,9.29,9.29,0,*46
1499713443.0,2845,17.44,74142.8,9.91,9.25,9.25,0,*47
1499713444.17,2846,17.44,74132.3,9.91,9.29,9.29,0,*44
1499713445.36,2847,17.44,74132.0,9.89,9.25,9.29,0,*40
1499713446.53,2848,17.44,74130.3,9.91,9.25,9.21,0,*4E
1499713447.71,2849,17.44,74132.8,9.91,9.25,9.21,0,*4F
1499713448.88,2850,17.44,74132.5,9.91,9.25,9.21,0,*47
1499713450.12,2851,17.44,74128.5,9.89,9.15,9.11,0,*4F
1499713451.35,2852,17.44,74138.5,9.89,9.15,9.03,0,*4F
1499713452.52,2853,17.44,74138.3,9.91,9.03,9.03,0,*40
1499713453.77,2854,17.44,74142.8,9.89,9.11,9.11,0,*4E
1499713454.97,2855,17.44,74146.3,9.89,9.21,9.21,0,*4F
1499713456.16,2856,17.44,74148.0,9.91,9.21,9.15,0,*42
1499713457.37,2857,17.44,74148.8,9.89,9.21,9.15,0,*4A
1499713458.57,2858,17.44,74156.8,9.89,9.25,9.21,0,*46
1499713459.77,2859,17.44,74156.5,9.89,9.25,9.21,0,*47
1499713460.97,2860,17.44,74158.0,9.89,9.25,9.21,0,*4D
1499713462.17,2861,17.44,74158.5,9.89,9.25,9.21,0,*4C
1499713463.39,2862,17.44,74156.0,9.89,9.21,9.11,0,*48
1499713464.63,2863,17.44,74154.3,9.89,9.15,9.11,0,*4E
1499713465.87,2864,17.44,74154.3,9.89,9.15,9.11,0,*49
1499713467.06,2865,17.44,74156.3,9.91,9.21,9.15,0,*42
1499713468.26,2866,17.44,74156.5,9.91,9.21,9.15,0,*41
1499713469.47,2867,17.44,74156.0,9.89,9.21,9.11,0,*4D
1499713470.67,2868,17.44,74148.8,9.91,9.11,9.03,0,*4B
1499713471.9,2869,17.44,74150.0,9.89,9.11,9.03,0,*43
1499713473.12,2870,17.44,74146.8,9.89,9.11,9.03,0,*4B
1499713474.36,2871,17.44,74142.8,9.89,9.11,9.11,0,*49
1499713475.59,2872,17.44,74142.3,9.89,9.15,9.03,0,*4D
1499713476.83,2873,17.44,74142.8,9.89,9.11,9.11,0,*4B
1499713478.07,2874,17.44,74140.0,9.89,9.11,9.11,0,*4C
1499713479.33,2875,17.44,74140.8,9.89,9.01,9.01,0,*4D
1499713480.57,2876,17.44,74148.0,9.89,9.11,9.11,0,*4E
1499713481.79,2877,17.44,74146.5,9.89,9.21,9.11,0,*4C
1499713483.01,2878,17.44,74148.3,9.91,9.15,9.15,0,*49
1499713484.2,2879,17.44,74148.3,9.89,9.21,9.21,0,*41
1499713485.42,2880,17.44,74158.0,9.91,9.15,9.15,0,*4E
1499713486.66,2881,17.44,74154.3,9.89,9.15,9.11,0,*42
1499713487.91,2882,17.44,74158.0,9.89,9.11,9.15,0,*41
1499713489.15,2883,17.44,74152.0,9.89,9.15,9.15,0,*44
1499713490.39,2884,17.44,74146.3,9.89,9.11,9.15,0,*47
1499713491.64,2885,17.44,74146.5,9.89,9.15,9.11,0,*46
1499713492.83,2886,17.44,74144.8,9.89,9.21,9.21,0,*41
1499713494.03,2887,17.44,74148.3,9.89,9.21,9.21,0,*40
1499713495.25,2888,17.44,74156.0,9.89,9.21,9.15,0,*48
1499713496.49,2889,17.44,74148.5,9.89,9.15,9.11,0,*4A
1499713497.71,2890,17.44,74154.3,9.89,9.15,9.21,0,*41
1499713498.93,2891,17.44,74158.8,9.89,9.21,9.15,0,*40
1499713500.13,2892,17.44,74156.5,9.89,9.21,9.21,0,*44
1499713501.37,2893,17.44,74146.5,9.89,9.15,9.15,0,*45
1499713502.59,2894,17.44,74150.0,9.89,9.15,9.21,0,*45
1499713503.83,2895,17.44,74150.8,9.89,9.15,9.15,0,*43
1499713505.08,2896,17.44,74148.3,9.89,9.15,9.15,0,*40
1499713506.27,2897,17.44,74148.5,9.89,9.21,9.21,0,*41
1499713507.47,2898,17.44,74150.8,9.89,9.21,9.21,0,*4E
1499713508.64,2899,17.44,74150.5,9.91,9.21,9.21,0,*46
1499713509.81,2900,17.44,74150.0,9.91,9.25,9.21,0,*43
1499713511.04,2901,17.44,74150.5,9.87,9.19,9.19,0,*41
1499713512.24,2902,17.44,74148.8,9.89,9.25,9.25,0,*4C
1499713513.41,2903,17.44,74148.5,9.91,9.25,9.25,0,*44
1499713514.59,2904,17.44,74146.0,9.91,9.25,9.25,0,*43
1499713515.78,2905,17.44,74154.3,9.89,9.25,9.25,0,*4B
1499713516.98,2906,17.44,74150.0,9.89,9.29,9.25,0,*44
1499713518.15,2907,17.44,74146.0,9.91,9.25,9.25,0,*40
1499713519.32,2908,17.44,74148.5,9.91,9.29,9.25,0,*43
1499713520.49,2909,17.44,74146.3,9.91,9.25,9.25,0,*4E
1499713521.69,2910,17.44,74142.5,9.89,9.25,9.25,0,*4F
1499713522.87,2911,17.44,74148.3,9.91,9.25,9.25,0,*47
1499713524.04,2912,17.44,74150.3,9.91,9.25,9.25,0,*44
1499713525.21,2913,17.44,74152.5,9.91,9.25,9.25,0,*45
1499713526.44,2914,17.44,74148.8,9.89,9.15,9.21,0,*4C
1499713527.63,2915,17.44,74152.0,9.91,9.15,9.21,0,*44
1499713528.83,2916,17.44,74154.5,9.91,9.11,9.03,0,*43
1499713530.05,2917,17.44,74152.3,9.91,9.11,9.15,0,*45
1499713531.24,2918,17.44,74150.3,9.91,9.21,9.15,0,*49
1499713532.41,2919,17.44,74154.5,9.91,9.29,9.25,0,*43
1499713533.61,2920,17.44,74152.5,9.89,9.25,9.25,0,*4C
1499713534.81,2921,17.44,74148.8,9.89,9.25,9.25,0,*4D
1499713535.98,2922,17.44,74148.3,9.91,9.25,9.25,0,*47
1499713537.2,2923,17.44,74154.5,9.89,9.25,9.15,0,*4C
1499713538.39,2924,17.44,74152.3,9.91,9.15,9.21,0,*46
1499713539.57,2925,17.44,74150.5,9.91,9.21,9.21,0,*40
1499713540.76,2926,17.44,74152.8,9.91,9.25,9.15,0,*40
1499713541.93,2927,17.44,74150.3,9.91,9.25,9.21,0,*46
1499713543.1,2928,17.44,74154.0,9.91,9.29,9.25,0,*41
1499713544.3,2929,17.44,74150.5,9.89,9.25,9.25,0,*45
1499713545.47,2930,17.44,74150.5,9.91,9.29,9.25,0,*48
1499713546.64,2931,17.44,74150.8,9.91,9.29,9.25,0,*49
1499713547.81,2932,17.44,74150.3,9.91,9.25,9.25,0,*46
1499713548.99,2933,17.44,74152.3,9.91,9.25,9.25,0,*47
1499713550.18,2934,17.44,74152.3,9.91,9.25,9.15,0,*43
1499713551.35,2935,17.44,74152.8,9.91,9.25,9.21,0,*45
1499713552.52,2936,17.44,74156.5,9.91,9.25,9.21,0,*46
1499713553.74,2937,17.44,74156.0,9.89,9.21,9.15,0,*4D
1499713554.94,2938,17.44,74156.5,9.89,9.21,9.21,0,*45
1499713556.14,2939,17.44,74158.0,9.89,9.21,9.21,0,*44
1499713557.3,2940,17.44,74158.0,9.91,9.29,9.29,0,*43
1499713558.47,2941,17.44,74162.3,9.91,9.29,9.25,0,*4E
1499713559.67,2942,17.44,74162.3,9.91,9.35,9.29,0,*4C
1499713560.83,2943,17.44,74160.3,9.91,9.29,9.29,0,*40
1499713562.01,2944,17.44,74156.8,9.91,9.25,9.25,0,*47
1499713563.18,2945,17.44,74160.8,9.91,9.25,9.25,0,*46
1499713564.34,2946,17.44,74158.8,9.91,9.29,9.29,0,*45
1499713565.54,2947,17.44,74158.3,9.91,9.35,9.29,0,*49
1499713566.78,2948,17.44,74152.5,9.93,9.39,9.39,0,*49
1499713568.0,2949,17.44,74160.3,9.93,9.39,9.33,0,*42
1499713569.19,2950,17.44,74154.0,9.93,9.33,9.29,0,*4B
1499713570.41,2951,17.44,74148.3,9.93,9.39,9.33,0,*4B
1499713571.61,2952,17.44,74152.5,9.93,9.33,9.33,0,*42
1499713572.83,2953,17.44,74150.0,9.95,9.35,9.35,0,*45
1499713574.02,2954,17.44,74146.5,9.93,9.29,9.29,0,*44
1499713575.21,2955,17.44,74144.5,9.93,9.29,9.29,0,*45
1499713576.4,2956,17.44,74144.0,9.93,9.33,9.29,0,*4D
1499713577.59,2957,17.44,74148.3,9.93,9.29,9.29,0,*47
1499713578.78,2958,17.44,74144.8,9.93,9.29,9.25,0,*44
1499713579.97,2959,17.44,74146.3,9.93,9.33,9.29,0,*42
1499713581.15,2960,17.44,74148.3,9.95,9.33,9.29,0,*4E
1499713582.34,2961,17.44,74140.8,9.93,9.29,9.25,0,*4E
1499713583.53,2962,17.44,74146.5,9.93,9.29,9.25,0,*4D
1499713584.75,2963,17.44,74148.0,9.93,9.29,9.19,0,*43
1499713585.95,2964,17.44,74146.3,9.95,9.29,9.19,0,*42
1499713587.14,2965,17.44,74146.0,9.93,9.25,9.25,0,*46
1499713588.34,2966,17.44,74150.3,9.93,9.25,9.25,0,*45
1499713589.51,2967,17.44,74140.8,9.95,9.29,9.29,0,*42
1499713590.7,2968,17.44,74136.8,9.93,9.25,9.25,0,*4B
1499713591.89,2969,17.44,74138.5,9.93,9.29,9.29,0,*4A
1499713593.12,2970,17.44,74124.3,9.93,9.19,9.25,0,*4D
1499713594.31,2971,17.44,74138.8,9.93,9.25,9.25,0,*43
1499713595.51,2972,17.44,74142.5,9.93,9.25,9.25,0,*40
1499713596.68,2973,17.44,74150.8,9.95,9.33,9.29,0,*4C
1499713597.87,2974,17.44,74148.3,9.93,9.29,9.25,0,*4A
1499713599.1,2975,17.44,74152.5,9.93,9.25,9.19,0,*48
1499713600.29,2976,17.44,74150.5,9.93,9.25,9.25,0,*44
1499713601.49,2977,17.44,74144.0,9.93,9.25,9.25,0,*45
1499713602.71,2978,17.44,74148.8,9.93,9.25,9.19,0,*45
1499713603.9,2979,17.44,74148.8,9.93,9.29,9.25,0,*47
1499713605.1,2980,17.44,74154.5,9.95,9.35,9.33,0,*4D
1499713606.27,2981,17.44,74158.5,9.95,9.33,9.33,0,*4A
1499713607.49,2982,17.44,74158.3,9.93,9.25,9.19,0,*40
1499713608.72,2983,17.44,74160.0,9.93,9.19,9.25,0,*41
1499713609.91,2984,17.44,74158.0,9.93,9.25,9.25,0,*49
1499713611.11,2985,17.44,74156.8,9.93,9.33,9.33,0,*48
1499713612.28,2986,17.44,74152.8,9.95,9.29,9.29,0,*4D
1499713613.47,2987,17.44,74156.0,9.93,9.33,9.33,0,*4A
1499713614.64,2988,17.44,74158.5,9.95,9.33,9.29,0,*48
1499713615.81,2989,17.44,74160.8,9.95,9.29,9.25,0,*4E
1499713617.0,2990,17.44,74160.0,9.93,9.29,9.29,0,*4C
1499713618.17,2991,17.44,74164.0,9.99,9.33,9.33,0,*47
1499713619.36,2992,17.44,74168.5,9.93,9.29,9.25,0,*42
1499713620.54,2993,17.44,74170.0,9.95,9.33,9.29,0,*42
1499713621.71,2994,17.44,74170.8,9.95,9.29,9.29,0,*4E
1499713622.91,2995,17.44,74170.0,9.95,9.19,9.21,0,*44
1499713624.08,2996,17.44,74166.0,9.95,9.29,9.21,0,*44
1499713625.25,2997,17.44,74166.5,9.95,9.29,9.29,0,*4D
1499713626.44,2998,17.44,74168.5,9.93,9.25,9.25,0,*44
1499713627.61,2999,17.44,74174.5,9.95,9.29,9.29,0,*43
1499713628.78,3000,17.44,74176.8,9.95,9.29,9.21,0,*43
1499713629.95,3001,17.44,74176.3,9.95,9.29,9.29,0,*4A
1499713631.13,3002,17.44,74172.5,9.95,9.21,9.21,0,*49
1499713632.35,3003,17.44,74182.0,9.93,9.25,9.19,0,*41
1499713633.56,3004,17.44,74184.0,9.93,8.75,8.65,0,*48
1499713634.78,3005,17.44,74184.5,9.93,7.97,7.87,0,*49
1499713635.98,3006,17.44,74188.5,9.93,8.27,8.19,0,*46
1499713637.17,3007,17.44,74176.8,9.91,8.61,8.59,0,*43
1499713638.37,3008,17.44,74188.8,9.91,8.89,8.83,0,*4D
1499713639.57,3009,17.44,74174.8,9.91,9.03,9.11,0,*45
1499713640.74,3010,17.44,74168.3,9.91,9.21,9.21,0,*4E
1499713641.91,3011,17.44,74160.0,9.91,9.21,9.21,0,*4F
1499713643.08,3012,17.44,74148.0,9.91,9.29,9.21,0,*44
1499713644.27,3013,17.44,74144.5,9.93,9.29,9.25,0,*43
1499713645.47,3014,17.44,74148.5,9.93,9.29,9.25,0,*44
1499713646.64,3015,17.44,74152.5,9.91,9.25,9.21,0,*4F
1499713647.81,3016,17.44,74154.3,9.91,9.25,9.21,0,*4C
1499713648.99,3017,17.44,74150.5,9.91,9.25,9.21,0,*4D
1499713650.18,3018,17.44,74140.0,9.89,9.25,9.25,0,*4F
1499713651.35,3019,17.44,74128.0,9.91,9.29,9.29,0,*47
1499713652.54,3020,17.44,74118.3,9.93,9.33,9.29,0,*44
1499713653.73,3021,17.44,74116.3,9.93,9.29,9.29,0,*4E
1499713654.93,3022,17.44,74122.8,9.93,9.33,9.33,0,*4D
1499713656.12,3023,17.44,74124.3,9.93,9.29,9.25,0,*40
1499713657.34,3024,17.44,74122.5,9.93,9.07,9.15,0,*48
1499713658.56,3025,17.44,74124.3,9.93,9.15,9.07,0,*49
1499713659.75,3026,17.44,74130.3,9.93,9.25,9.25,0,*49
1499713661.0,3027,17.44,74132.3,9.93,9.19,9.15,0,*44
1499713662.23,3028,17.44,74134.5,9.95,9.01,9.01,0,*41
1499713663.46,3029,17.44,74146.5,9.93,8.87,8.93,0,*43
1499713664.66,3030,17.44,74152.0,9.93,8.87,8.87,0,*4E
1499713665.91,3031,17.44,74152.8,9.93,8.97,8.93,0,*4B
1499713667.15,3032,17.44,74162.3,9.93,8.97,8.93,0,*48
1499713668.38,3033,17.44,74154.3,9.91,8.93,8.93,0,*4F
1499713669.6,3034,17.44,74150.3,9.91,9.11,9.01,0,*49
1499713670.8,3035,17.44,74144.5,9.91,9.21,9.11,0,*4A
1499713671.97,3036,17.44,74140.8,9.91,9.21,9.21,0,*4A
1499713673.16,3037,17.44,74140.0,9.91,9.21,9.15,0,*4C
1499713674.33,3038,17.44,74124.3,9.91,9.21,9.21,0,*44
1499713675.52,3039,17.44,74132.5,9.91,9.21,9.15,0,*42
1499713676.71,3040,17.44,74138.8,9.91,9.21,9.15,0,*4C
1499713677.88,3041,17.44,74132.0,9.91,9.21,9.21,0,*4A
1499713679.07,3042,17.44,74148.8,9.91,9.21,9.15,0,*4E
1499713680.29,3043,17.44,74146.8,9.91,9.15,9.11,0,*4C
1499713681.54,3044,17.44,74164.8,9.93,9.19,9.19,0,*4D
1499713682.74,3045,17.44,74186.5,9.93,9.07,9.07,0,*4C
1499713683.98,3046,17.44,74180.5,9.93,9.15,9.15,0,*4F
1499713685.15,3047,17.44,74174.8,9.91,9.21,9.21,0,*4C
1499713686.35,3048,17.44,74164.5,9.91,9.15,9.03,0,*44
1499713687.55,3049,17.44,74148.0,9.91,9.15,9.03,0,*45
1499713688.77,3050,17.44,74140.3,9.93,9.15,9.03,0,*4F
1499713689.97,3051,17.44,74148.8,9.91,9.03,8.93,0,*43
1499713691.17,3052,17.44,74152.8,9.91,9.11,9.03,0,*4B
1499713692.37,3053,17.44,74150.5,9.91,9.03,8.93,0,*41
1499713693.58,3054,17.44,74158.8,9.91,9.03,9.01,0,*4C
1499713694.81,3055,17.44,74166.8,9.91,9.01,9.01,0,*4F
1499713696.01,3056,17.44,74162.3,9.91,9.03,8.93,0,*44
1499713697.22,3057,17.44,74160.0,9.91,9.03,8.93,0,*45
1499713698.44,3058,17.44,74152.3,9.91,9.11,9.01,0,*43
1499713699.69,3059,17.44,74148.3,9.89,9.15,9.11,0,*4E
1499713700.9,3060,17.44,74144.5,9.91,9.15,9.15,0,*49
1499713702.08,3061,17.44,74142.0,9.91,9.03,9.03,0,*48
1499713703.26,3062,17.44,74144.3,9.91,9.03,9.03,0,*4B
1499713704.44,3063,17.44,74132.3,9.91,9.03,9.03,0,*4A
1499713705.61,3064,17.44,74122.3,9.91,9.21,9.21,0,*4D
1499713706.83,3065,17.44,74114.3,9.89,9.21,9.15,0,*42
1499713708.02,3066,17.44,74094.8,9.89,9.29,9.29,0,*46
1499713709.19,3067,17.44,74066.5,9.91,9.29,9.25,0,*42
1499713710.41,3068,17.44,74058.5,9.91,9.11,9.11,0,*41
1499713711.63,3069,17.44,74052.0,9.89,9.11,9.03,0,*4A
1499713712.88,3070,17.44,74062.3,9.89,8.93,8.89,0,*4A
1499713714.13,3071,17.44,74054.3,9.89,9.01,8.89,0,*41
1499713715.36,3072,17.44,74040.5,9.91,9.01,8.93,0,*40
1499713716.59,3073,17.44,74058.5,9.91,9.01,9.01,0,*4B
1499713717.81,3074,17.44,74066.5,9.91,8.93,8.93,0,*4C
1499713719.01,3075,17.44,74056.8,9.91,8.89,8.83,0,*47
1499713720.24,3076,17.44,74100.3,9.89,8.79,8.89,0,*48
1499713721.44,3077,17.44,74094.5,9.91,8.89,8.83,0,*45
1499713722.66,3078,17.44,74120.0,9.91,8.93,8.93,0,*40
1499713723.92,3079,17.44,74118.3,9.89,9.01,8.93,0,*42
1499713725.15,3080,17.44,74116.8,9.91,9.01,8.93,0,*4D
1499713726.4,3081,17.44,74124.3,9.89,9.01,8.93,0,*45
1499713727.65,3082,17.44,74102.0,9.89,9.11,9.01,0,*4D
1499713728.87,3083,17.44,74044.8,9.89,9.15,9.03,0,*4A
1499713730.1,3084,17.44,74034.5,9.89,9.11,8.83,0,*40
1499713731.32,3085,17.44,74058.8,9.91,8.89,8.71,0,*45
1499713732.54,3086,17.44,74078.5,9.91,8.71,8.59,0,*4B
1499713733.78,3087,17.44,74112.5,9.89,8.71,8.47,0,*4C
1499713735.03,3088,17.44,74120.0,9.89,8.89,8.71,0,*41
1499713736.25,3089,17.44,74144.8,9.89,8.71,8.61,0,*46